Location: Windsor
(43.2292°N, 89.3015°W)
Time: 08:17:19
(UTC+00:00)

NOAA 19 - Visible Passes

Search period start: 25 June 2022 00:00
Search period end: 05 July 2022 00:00
Orbit: 840 x 861 km, 99.1° (Epoch: 24 June)

Date Brightness Start Highest point End Pass type
(mag) Time Alt. Az. Time Alt. Az. Time Alt. Az.
28 Jun 8.1 02:56:52 10° W 02:58:08 11° W 02:59:24 10° WNW visible
29 Jun 7.8 02:43:13 10° WSW 02:46:05 14° W 02:48:58 10° WNW visible
30 Jun 7.7 02:30:19 10° SW 02:34:03 18° W 02:37:48 10° NW visible
01 Jul 7.5 02:17:43 10° SW 02:22:02 23° W 02:26:23 10° NW visible
